Location: Invercargill
(46.4000°S, 168.3500°E)
Time: 04:12:00
(UTC+13:00)

Cosmos 2228 Rocket - Pass Details

Date: 24 January 2019
Orbit: 617 x 653 km, 82.5° (Epoch: 17 October)

Event Time Altitude Azimuth Distance (km) Brightness Sun altitude
Rises 22:52:29 0° 344° (NNW) 2,890 6.2 -12.1°
Reaches altitude 10° 22:54:42 10° 341° (NNW) 1,993 5.4 -12.4°
Maximum altitude 22:59:05 63° 259° (WSW) 703 3.5 -12.9°
Drops below altitude 10° 23:03:33 10° 177° (S) 2,028 6.4 -13.4°
Sets 23:05:50 0° 173° (S) 2,947 7.2 -13.7°
